Weather History for Buffalo, WY

Change the Weather History Date:

Wednesday, October 24, 2012

  Actual Average Record
Temperature  
Mean Temperature 31 °F 44 °F  
Max Temperature 37 °F 55 °F 77 °F (2007)
Min Temperature 24 °F 32 °F 22 °F (2012)
Degree Days  
Heating Degree Days 34 21  
Month to date heating degree days 432  
Since 1 July heating degree days 746  
Cooling Degree Days 0 0  
Month to date cooling degree days 0  
Year to date cooling degree days 491  
Moisture  
Dew Point 27 °F    
Average Humidity 89    
Maximum Humidity 96    
Minimum Humidity 72    
Precipitation  
Precipitation 0.00 in 0.02 in 0.09 in (2009)
Month to date precipitation 0.84  
Year to date precipitation 12.42  
Sea Level Pressure  
Sea Level Pressure 30.02 in    
Wind  
Wind Speed 8 mph (North)    
Max Wind Speed 18 mph    
Max Gust Speed 23 mph    
Visibility 6 miles    
Events Fog , Snow    
T = Trace of Precipitation, MM = Missing Value Source: NWS Daily Summary

Daily Weather History Graph

Daily Weather History Graph

Search for Another Location

Airport:

Trip Planner

Search our weather history database for the weather conditions in past years. The results will help you decide how hot, cold, wet, or windy it might be!

Date:

Astronomy

Oct. 24, 2012 Rise Set
Actual Time 7:34 AM MDT 6:07 PM MDT
Civil Twilight 7:04 AM MDT 6:36 PM MDT
Nautical Twilight 6:30 AM MDT 7:10 PM MDT
Astronomical Twilight 5:56 AM MDT 7:44 PM MDT
Moon 3:33 PM MDT (10/24) 2:21 AM MDT (10/24)
Length of Visible Light 11h 32m
Length of Day
10h 32m
Waxing Gibbous, 76% of the Moon is Illuminated
Oct 24
Waxing Gibbous
Oct 29
Full
Nov 6
Last Quarter
Nov 13
New
Nov 20
First Quarter

Hourly Weather History & Observations

Time (MDT) Temp. Windchill Dew Point Humidity Pressure Visibility Wind Dir Wind Speed Gust Speed Precip Events Conditions
12:53 AM 37.0 °F 32.4 °F 36.0 °F 96% 29.87 in 0.2 mi North 5.8 mph - N/A Fog Fog
1:53 AM 37.0 °F 34.5 °F 36.0 °F 96% 29.89 in 0.5 mi NW 3.5 mph - N/A Fog Fog
2:32 AM 35.6 °F 27.5 °F 33.8 °F 93% 29.89 in 3.0 mi North 11.5 mph - N/A   Overcast
2:48 AM 35.6 °F 29.2 °F 33.8 °F 93% 29.90 in 10.0 mi NNW 8.1 mph - N/A   Mostly Cloudy
2:53 AM 35.1 °F 29.3 °F 33.1 °F 92% 29.92 in 10.0 mi NNW 6.9 mph - N/A   Mostly Cloudy
3:27 AM 32.0 °F 24.8 °F 30.2 °F 93% 29.90 in 10.0 mi North 8.1 mph - N/A   Unknown
3:53 AM 32.0 °F 23.6 °F 30.0 °F 92% 29.94 in 7.0 mi North 10.4 mph 20.7 mph N/A   Unknown
4:53 AM 30.9 °F 19.1 °F 28.0 °F 89% 29.97 in 10.0 mi North 18.4 mph 23.0 mph N/A   Unknown
5:53 AM 30.9 °F 22.2 °F 28.0 °F 89% 30.00 in 6.0 mi North 10.4 mph 21.9 mph N/A   Overcast
6:00 AM 30.2 °F 21.3 °F 28.4 °F 93% 29.97 in 6.0 mi North 10.4 mph 21.9 mph N/A   Overcast
6:53 AM 28.9 °F 20.4 °F 27.0 °F 92% 30.02 in 8.0 mi NNW 9.2 mph - N/A   Overcast
7:50 AM 28.4 °F 21.2 °F 26.6 °F 93% 29.98 in 10.0 mi NNW 6.9 mph - N/A   Overcast
7:53 AM 28.9 °F 22.8 °F 27.0 °F 92% 30.03 in 10.0 mi North 5.8 mph - N/A   Overcast
8:36 AM 28.4 °F 21.2 °F 26.6 °F 93% 30.00 in 9.0 mi North 6.9 mph - N/A   Overcast
8:53 AM 28.9 °F 21.9 °F 27.0 °F 92% 30.04 in 6.0 mi North 6.9 mph - N/A   Overcast
9:24 AM 28.4 °F 21.2 °F 26.6 °F 93% 30.00 in 1.8 mi North 6.9 mph - N/A   Overcast
10:37 AM 30.2 °F 21.9 °F 28.4 °F 93% 30.00 in 1.5 mi North 9.2 mph - N/A   Overcast
10:42 AM 30.2 °F 22.6 °F 28.4 °F 93% 30.00 in 0.8 mi North 8.1 mph - N/A   Mist
10:53 AM 30.0 °F 23.2 °F 28.0 °F 92% 30.04 in 0.2 mi NNW 6.9 mph - N/A Fog Light Freezing Fog
11:32 AM 30.2 °F 22.6 °F 28.4 °F 93% 30.00 in 1.0 mi North 8.1 mph - N/A   Mist
11:40 AM 30.2 °F 22.6 °F 28.4 °F 93% 30.00 in 1.5 mi North 8.1 mph - N/A   Mist
11:53 AM 30.0 °F 21.7 °F 28.0 °F 92% 30.05 in 3.0 mi North 9.2 mph - N/A   Mist
12:16 PM 30.2 °F 20.8 °F 28.4 °F 93% 30.00 in 3.0 mi North 11.5 mph - N/A   Overcast
12:48 PM 28.4 °F 20.4 °F 26.6 °F 93% 30.00 in 1.8 mi North 8.1 mph - 0.00 in Snow Light Snow
12:49 PM 28.9 °F 20.4 °F 27.0 °F 92% 30.06 in 1.8 mi North 9.2 mph - 0.00 in Snow Light Snow
12:57 PM 28.4 °F 19.7 °F 26.6 °F 93% 29.99 in 3.0 mi NNW 9.2 mph - 0.00 in Snow Light Snow
1:53 PM 30.0 °F 23.2 °F 28.0 °F 92% 30.04 in 8.0 mi North 6.9 mph - 0.00 in   Overcast
2:46 PM 30.2 °F 21.9 °F 26.6 °F 86% 29.99 in 10.0 mi North 9.2 mph - N/A   Overcast
3:02 PM 30.2 °F 23.4 °F 26.6 °F 86% 30.00 in 10.0 mi NNW 6.9 mph - N/A   Overcast
3:25 PM 30.2 °F 21.9 °F 26.6 °F 86% 30.00 in 10.0 mi North 9.2 mph 18.4 mph N/A   Overcast
3:53 PM 32.0 °F 24.2 °F 25.0 °F 75% 30.07 in 10.0 mi NNE 9.2 mph - N/A   Overcast
4:53 PM 33.1 °F 26.1 °F 25.0 °F 72% 30.10 in 10.0 mi North 8.1 mph - N/A   Overcast
5:45 PM 30.2 °F 24.3 °F 24.8 °F 80% 30.04 in 10.0 mi North 5.8 mph - N/A   Scattered Clouds
5:53 PM 30.0 °F - 24.1 °F 79% 30.12 in 10.0 mi Calm Calm - N/A   Partly Cloudy
6:53 PM 28.9 °F - 23.0 °F 78% 30.14 in 10.0 mi Calm Calm - N/A   Clear
7:53 PM 28.9 °F - 23.0 °F 78% 30.16 in 10.0 mi Calm Calm - N/A   Clear
8:53 PM 28.9 °F - 23.0 °F 78% 30.17 in 10.0 mi Calm Calm - N/A   Clear
10:53 PM 25.0 °F 17.1 °F 19.0 °F 78% 30.20 in 10.0 mi WSW 6.9 mph - N/A   Clear
11:53 PM 24.1 °F 19.7 °F 19.0 °F 81% 30.21 in 10.0 mi West 3.5 mph - N/A   Clear